Simultaneous Nadir Overpasses (SNOs) Predictions

Prediction of SNOs between NOAA-15 and METOP-C Satellite Orbit:

Table of predicted SNOs for the next 14.0 days since TLE Epoch: 10/12/2020
Index Date (NOAA-15) Time (NOAA-15) Lat,Lon (NOAA-15) SZA (NOAA-15 ) Date (METOP-C) Time (METOP-C) Lat,Lon (METOP-C) SZA (METOP-C ) Distance(km) Time Diff (sec)
1 10/25/2020 17:10:32 -80.94, 138.91 84.55 10/25/2020 17:09:22 -80.95, 138.80 84.59 1.87 70
2 10/25/2020 18:01:05 80.95, -53.83 95.46 10/25/2020 18:00:01 80.95, -53.67 95.45 2.94 64
3 10/25/2020 18:51:35 -80.95, 113.42 84.54 10/25/2020 18:50:44 -80.94, 113.33 84.58 2.36 51
4 10/25/2020 19:42:08 80.96, -79.31 95.47 10/25/2020 19:41:23 80.95, -79.14 95.46 3.19 45
5 10/25/2020 20:32:37 -80.95, 88.31 84.51 10/25/2020 20:32:05 -80.95, 88.22 84.53 1.50 32
6 10/25/2020 21:23:10 80.95,-104.42 95.50 10/25/2020 21:22:44 80.96,-104.24 95.52 3.21 26
7 10/25/2020 22:13:40 -80.96, 62.83 84.50 10/25/2020 22:13:27 -80.94, 62.75 84.52 2.02 13
8 10/25/2020 23:04:12 80.95,-129.53 95.54 10/25/2020 23:04:06 80.95,-129.71 95.52 3.27 6
9 10/25/2020 23:54:42 -80.95, 37.71 84.47 10/25/2020 23:54:48 -80.95, 37.64 84.47 1.16 6
10 10/26/2020 00:45:15 80.96,-155.01 95.55 10/26/2020 00:45:28 80.95,-155.18 95.53 3.15 13
11 10/26/2020 01:35:45 -80.96, 12.23 84.46 10/26/2020 01:36:10 -80.95, 12.17 84.46 1.71 25
12 10/26/2020 02:26:17 80.95, 179.88 95.58 10/26/2020 02:26:49 80.96, 179.71 95.58 3.08 32
